Location: Quail Creek Observatory
(32.9410°N, 97.1240°W)
Time: 12:41:28
(UTC-06:00)

Daily predictions for brighter satellites

Satellite Brightness Start Highest point End
(mag) Time Altitude Azimuth Time Altitude Azimuth Time Altitude Azimuth
Cosmos 1656 3.8 17:42:49 10° SSW 17:48:25 82° WNW 17:53:57 10° NNE
USA 215 3.8 17:43:50 10° ESE 17:49:47 39° NE 17:55:44 10° NNW
Shenzhou-11 Module 3.9 17:50:35 10° S 17:52:44 18° SE 17:54:54 10° E
Cosmos 1666 3.0 17:50:49 10° NNW 17:54:31 68° W 17:58:13 10° S
Cosmos 1536 Rocket 3.6 17:51:37 10° S 17:55:58 84° W 18:00:19 10° N
DELTA 2 R/B (1) 4.1 17:52:02 10° WNW 17:57:21 44° N 18:02:40 10° E
CZ-2C R/B 4.2 17:53:16 10° SSW 17:58:05 39° W 18:02:53 10° NNW
Cosmos 2297 Rocket 2.2 17:52:49 10° NNW 17:58:28 67° ENE 18:04:04 10° SSE
NOSS 3-4 (A) 3.5 17:53:12 10° SSW 17:59:24 87° ESE 18:05:46 10° NNE
Meteor 1-23 Rocket 4.3 17:53:47 10° S 17:59:27 62° E 18:05:04 10° NNE
NOSS 3-4 (C) 3.5 17:53:17 10° SSW 17:59:29 86° ESE 18:05:51 10° NNE
CZ-2C R/B 3.8 17:55:56 10° NNE 18:00:38 65° ESE 18:05:22 10° S
Cosmos 1484 Rocket 2.9 17:58:18 10° SSE 18:02:18 90° S 18:06:21 10° NNW
SJ-7 4.5 18:00:09 10° S 18:04:08 81° WSW 18:08:08 10° NNW
NOSS 2-2 (D) 4.2 18:03:37 10° S 18:07:05 31° ESE 18:10:22 12° NE
SMAP 3.3 18:09:37 10° S 18:14:15 77° WSW 18:18:55 10° NNW
CENTAUR R/B 4.1 18:09:24 10° N 18:15:38 24° NE 18:22:07 10° E
SKYMED 2 3.7 18:12:01 10° NNE 18:16:16 53° E 18:20:30 10° S
CSL-04 Debris 4.5 18:11:40 10° S 18:17:01 73° WSW 18:22:25 10° NNW
METEOR-M 4.2 18:15:01 10° SSE 18:20:13 56° ENE 18:25:26 10° N
Atlas Centaur 2 3.4 18:16:43 10° W 18:22:06 35° SSW 18:26:26 10° SE
NOSS 2-2 (E) 3.4 18:18:30 10° SSW 18:22:18 60° ESE 18:25:38 15° NE
CZ-4 R/B 4.4 18:18:37 10° SSE 18:22:40 58° ENE 18:26:44 10° N
EP 2 4.5 18:20:33 10° SW 18:23:21 68° WNW 18:25:17 16° NNE
Lacrosse 5 rocket 2.6 18:20:11 10° S 18:23:30 24° ESE 18:25:21 18° E
FENGYUN 3A 4.2 18:19:07 10° SE 18:23:57 36° ENE 18:28:48 10° N
SL-16 R/B 3.4 18:23:18 10° SSE 18:27:36 22° E 18:29:37 18° ENE
NOSS 2-2 (C) 3.3 18:25:43 10° SSW 18:29:31 62° ESE 18:32:18 19° NE
ALOS 2.6 18:26:02 10° SE 18:30:22 40° ENE 18:34:43 10° N
Cosmos 2322 Rocket 3.3 18:26:52 10° SSE 18:31:11 23° E 18:32:59 20° ENE
IRS-1A Rocket 4.2 18:25:39 10° SSE 18:31:15 87° ENE 18:36:48 10° NNW
SL-8 R/B 3.7 18:27:15 10° SW 18:32:04 79° SE 18:35:14 21° NE
Ariane Rocket 4.0 18:27:28 10° S 18:32:21 50° W 18:37:15 10° NNW
SPOT 3 Rocket 3.7 18:31:46 10° SE 18:36:42 47° ENE 18:41:38 10° N
Cosmos 2360 4.2 18:33:07 10° SSW 18:38:50 89° ESE 18:44:36 10° NNE
Cosmos 1515 4.4 18:36:12 10° SSW 18:39:53 53° W 18:43:37 10° N
RESURS DK-1 2.2 18:36:02 10° SSW 18:40:09 84° ESE 18:43:08 18° NNE
Cosmos 1184 Rocket 2.8 18:37:25 10° S 18:40:35 53° E 18:41:56 30° NNE
Cosmos 494 Rocket 4.2 18:35:48 10° N 18:40:52 46° ENE 18:45:52 10° SE
Cosmos 1726 Rocket 4.3 18:42:02 28° E 18:42:02 28° E 18:45:40 10° SE
Cosmos 1892 Rocket 4.0 18:37:54 10° SSE 18:42:03 39° E 18:44:10 24° NE
YAOGAN 1 2.8 18:38:01 10° S 18:42:19 73° WSW 18:46:39 10° NNW
Hubble Space Telescope 3.4 18:40:55 10° WSW 18:43:35 17° SSW 18:46:15 10° SSE
Cosmos 1697 Rocket 4.0 18:39:56 10° SW 18:45:11 39° WNW 18:50:28 10° N
EO 1 Del DPAF 3.5 18:46:11 10° N 18:49:59 69° WNW 18:53:45 10° SSW
ERS-2 1.9 18:46:39 10° SSE 18:50:17 73° ENE 18:53:57 10° N
Cosmos 2251 Rocket 4.0 18:45:35 10° N 18:50:27 36° ENE 18:55:15 10° SE
Thor Agena Rocket 4.2 18:49:31 29° ENE 18:50:58 34° E 18:55:42 10° SSE
SJ 16-02 4.2 18:57:35 10° W 18:59:20 12° WNW 19:01:07 10° NW
CZ-4 R/B 3.7 18:57:27 10° SSW 19:00:39 25° W 19:03:55 10° NW
COSMO-SKYMED 1 4.0 19:00:13 10° N 19:04:14 38° WNW 19:08:14 10° SW
S3M 3.8 18:59:26 10° S 19:05:29 67° E 19:11:12 12° NNE
Intelsat 5-3 Rocket 4.0 19:12:28 10° WSW 19:16:55 22° SSW 19:17:51 20° S
BREEZE-M R/B 3.6 19:17:02 10° SSW 19:20:22 43° SE 19:20:22 43° SE
OAO 1 Rocket 4.3 19:19:54 10° WNW 19:25:16 88° SSW 19:25:53 70° ESE
Cosmos 2360 Rocket 4.0 19:20:57 10° SSE 19:22:29 17° SSE 19:22:29 17° SSE
FengYun 1-2 T 4.1 19:20:26 10° SSE 19:26:00 71° ENE 19:31:38 10° N
Cosmos 1980 Rocket 3.8 19:22:18 10° WSW 19:27:15 30° WNW 19:32:15 10° N
NOSS 3-2 (C) 4.5 19:19:47 10° NW 19:27:30 64° WSW 19:35:43 10° SSE
Shenzhou-11 Module 4.4 19:25:51 10° WSW 19:27:16 24° W 19:27:16 24° W
USA 215 3.9 19:26:15 10° SSE 19:32:35 52° SW 19:38:56 10° NW
GPS 2-04 Rocket1 4.4 19:30:56 10° SW 19:32:36 25° SW 19:32:36 25° SW
Meteor 1-21 4.1 19:29:40 10° S 19:34:50 67° SE 19:34:50 67° SE
DELTA 2 R/B (1) 3.6 19:38:34 10° WNW 19:43:43 76° NW 19:43:43 76° NW
Cosmos 883 Rocket 4.4 19:41:44 10° S 19:47:21 71° SSE 19:47:21 71° SSE
Meteor 1-22 Rocket 4.2 19:43:09 10° N 19:49:00 81° W 19:54:35 10° S
Tiangong 2 4.4 19:47:49 10° SW 19:48:06 12° SW 19:48:06 12° SW
Cosmos 1745 Rocket 4.2 19:50:15 10° NNW 19:56:25 67° W 20:02:38 10° S
BREEZE-M DEB (TANK) 4.4 19:52:46 10° NW 20:01:01 49° NW 20:01:01 49° NW
Lacrosse 5 rocket 3.5 19:58:50 10° WSW 20:01:05 24° W 20:01:05 24° W
CENTAUR R/B 3.1 19:59:00 10° NNW 20:07:11 82° WSW 20:09:42 51° SSE
SL-16 R/B 3.3 20:06:05 10° SW 20:11:21 40° WNW 20:11:33 39° WNW
Cosmos 2322 Rocket 3.4 20:09:46 10° SW 20:14:52 37° WNW 20:14:52 37° WNW
CZ-3A R/B 4.0 19:59:40 10° WSW 20:16:02 43° S 20:16:02 43° S
Cosmos 2344 4.1 20:24:02 10° SW 20:31:26 50° NW 20:32:09 48° NW
